Flag for U.S.A. Weather past 2 weeks in Tallahassee, Florida, U.S.A.

70 °F

Passing clouds.

Feels Like: 65 °F
Forecast: 71 / 84 °F
Wind: No wind

Location: Tallahassee Regional Airport

Current Time: Oct 10, 2015 at 7:59:36 AM

Latest Report: Oct 10, 2015 at 6:53 AM

Visibility: 10 mi

Pressure: 29.97 "Hg

Humidity: 93%

Dew point: 68 °F

Location of TallahasseeLocation

Historic Weather in Tallahassee — Graph


Tallahassee temperature yesterday

Maximum temperature yesterday: 87 °F (at 1:53 PM)
Minimum temperature yesterday: 70 °F (at 12:53 AM)
Average temperature yesterday: 78 °F

Past Weeks' High & Low Weather Summary

High89 °F (Sep 26, 3:53 PM)97% (Sep 30, 5:53 AM)30.10 "Hg (Sep 30, 5:53 AM)
Low58 °F (Oct 8, 6:53 AM)39% (Oct 7, 3:53 PM)29.61 "Hg (Oct 2, 3:53 PM)
Average74 °F80%29.87 "Hg
* Reported Sep 25 5:53 AM — Oct 10 5:53 AM, Tallahassee, Weather by CustomWeather, © 2015

Note: Actual official high and low records may vary slightly from our data, if they occured in-between our weather recording intervals... More about our weather records


Tallahassee weather history for previous 24 hours

Time TempWeatherWind HumidityBarometerVisibility
5:53 AM
Sat, Oct 10
70 °FPassing clouds.No wind93%29.97 "Hg10 mi
4:53 AM71 °FClear.No wind90%29.96 "Hg10 mi
3:53 AM72 °FClear.No wind91%29.96 "Hg10 mi
2:53 AM72 °FClear.No wind87%29.98 "Hg10 mi
1:53 AM71 °FClear.No wind90%29.99 "Hg10 mi
12:53 AM74 °FClear.No wind88%30.01 "Hg10 mi
11:53 PM
Fri, Oct 9
75 °FPassing clouds.No wind85%30.01 "Hg10 mi
10:53 PM76 °FPassing clouds.No wind82%30.01 "Hg10 mi
9:53 PM75 °FPassing clouds.3 mph85%30.00 "Hg10 mi
8:53 PM77 °FPassing clouds.No wind79%30.00 "Hg10 mi
7:53 PM78 °FBroken clouds.5 mph76%29.99 "Hg10 mi
6:53 PM81 °FPartly sunny.3 mph69%29.98 "Hg10 mi
5:53 PM84 °FBroken clouds.5 mph61%29.99 "Hg10 mi
4:53 PM84 °FBroken clouds.8 mph59%30.00 "Hg10 mi
3:53 PM85 °FBroken clouds.8 mph57%30.00 "Hg10 mi
2:53 PM87 °FPartly sunny.6 mph53%30.01 "Hg10 mi
1:53 PM87 °FPartly sunny.6 mph53%30.05 "Hg10 mi
12:53 PM85 °FBroken clouds.3 mph59%30.07 "Hg10 mi
11:53 AM85 °FBroken clouds.5 mph59%30.09 "Hg10 mi
10:53 AM82 °FPartly sunny.9 mph67%30.10 "Hg10 mi
9:53 AM79 °FPartly sunny.6 mph77%30.10 "Hg10 mi
8:53 AM75 °FPartly sunny.6 mph88%30.09 "Hg10 mi
7:53 AM72 °FPassing clouds.3 mph91%30.08 "Hg10 mi
Weather by CustomWeather, © 2015

See weather overviewHow to use our weather pages